Terug naar catalogus

FENGYUN 1C DEB

ActiefPO
NORAD 35194·DEBRIS·🇨🇳 China

Gelanceerd May 10, 1999 vanaf Taiyuan Satellite Launch Center

Loading…

Volgende Passages (komende 24 uur)

TLE

VersSource: Space-Track

Epoch: Sep 14, 2026, 13:06 UTC

1 35194U 99025DPA 26257.54638949  .00002103  00000-0  39173-3 0  9999
2 35194  98.9487   8.2427 0108520 311.6806  47.5143 14.62599176694196

Volg FENGYUN 1C DEB in realtime met AllMySat

Download on the App Store